Other Public Products
Issued by NWS Grand Forks, ND

Home | Current Version | Previous Version | Text Only | Print | Product List | Glossary Off
Versions: 1 2 3 4 5 6 7 8 9 10 11 12 13 14 15 16 17 18 19 20 21 22 23 24 25 26 27 28 29 30 31 32 33 34 35 36 37 38 39 40 41 42 43 44 45 46 47 48 49 50

000
FPUS83 KFGF 210610
OPUFGF
PRAIRIE TO PINES WEATHER ROUNDUP
NATIONAL WEATHER SERVICE EASTERN NORTH DAKOTA/GRAND FORKS ND
1200 AM CST TUE NOV 21 2017

 **SATELLITE DATA USED TO AUGMENT SKY COVER AT AUTOMATED STATIONS**
 *****  WEATHER ACROSS EASTERN NORTH DAKOTA  *****

CITY           SKY/WX    TMP DP  RH WIND       PRES   REMARKS
GRAND FORKS    FAIR      22  13  68 NW23G35   29.66R WCI   6
6HR MIN TEMP:  22; 6HR MAX TEMP:  38;

GRND FORKS AFB PTCLDY    22  12  66 NW22G32   29.67R WCI   6
GRND FORKS NWS NOT AVBL
BUXTON         NOT AVBL
DEVILS LAKE    FLURRIES  19  12  74 NW29G36   29.72R WCI   0
6HR MIN TEMP:  19; 6HR MAX TEMP:  31; 6HR PCP: TRACE;

FARGO          CLOUDY    27  16  63 NW20G28   29.67R WCI  13
6HR MIN TEMP:  27; 6HR MAX TEMP:  45;

WAHPETON ARPT  NOT AVBL
$$

 *****  WEATHER ACROSS CENTRAL AND WESTERN NORTH DAKOTA  *****

CITY           SKY/WX    TMP DP  RH WIND       PRES   REMARKS
JAMESTOWN      CLOUDY    19  10  68 NW28G41   29.76R WCI   1
6HR MIN TEMP:  19; 6HR MAX TEMP:  37; 6HR PCP: TRACE;

BISMARCK       FAIR      22   5  48 NW28G39   29.91R WCI   4
6HR MIN TEMP:  22; 6HR MAX TEMP:  42;

MINOT          FAIR      12   3  67 W26G38    29.88R WCI  -8
6HR MIN TEMP:  12; 6HR MAX TEMP:  28; 6HR PCP: TRACE;

MINOT AFB      FAIR      10   3  71 NW28G38   29.87R WCI -11
6HR MIN TEMP:  10; 6HR MAX TEMP:  25; 6HR PCP: TRACE;

GARRISON         N/A     11   4  73 NW31G40   29.90R WCI -11
6HR MIN TEMP:  11; 6HR MAX TEMP:  31;

WILLISTON      FAIR       7  -1  70 NW18      30.05R WCI -12
6HR MIN TEMP:   7; 6HR MAX TEMP:  30;

DICKINSON      FAIR      19   9  65 N16G29    29.91R WCI   4
6HR MIN TEMP:  19; 6HR MAX TEMP:  34;

HETTINGER      CLOUDY    30  10  43 NW23G35   29.89R WCI  17
6HR MIN TEMP:  30; 6HR MAX TEMP:  41; 6HR PCP: TRACE;

$$

 *****  OTHER OBSERVATIONS NORTHEAST NORTH DAKOTA  *****

CITY           SKY/WX    TMP DP  RH WIND       PRES   REMARKS
WALHALLA       FAIR      18  10  73 NW30G37   29.69R WCI  -2
LANGDON        MOCLDY    16   9  73 NW30G40   29.65R WCI  -4
CAVALIER       FLURRIES  18  10  73 NW29G39   29.66R WCI  -2
GRAFTON        CLOUDY    21  12  68 NW22G31   29.68R WCI   5
CANDO          FLURRIES  16   7  67 NW31G41   29.77R WCI  -5
FORT TOTTEN      N/A     19  11  71 NW14      29.95S WCI   6
ROLLA          CLOUDY    14   5  67 NW35G53   29.73R WCI  -8
RUGBY          CLOUDY    14   7  73 NW32G43   29.79R WCI  -7
 ***** THE ABOVE OBSERVATIONS ARE NON NWS ARE NOT QUALITY
        CONTROLLED AND MAY MIS-REPORT RAIN FOR SNOW...
$$

 *****  OTHER OBSERVATIONS SOUTHEAST NORTH DAKOTA *****

CITY           SKY/WX    TMP DP  RH WIND       PRES   REMARKS
COOPERSTOWN    FLURRIES  21  14  73 NW26G38   29.71R WCI   4
VALLEY CITY    FLURRIES  21  14  73 NW26G40   29.74R WCI   4
OAKES            N/A     25  16  68 NW18G28   29.74R WCI  11
GWINNER          N/A     27  12  54 NW23G32   29.72R WCI  12
SHEYENNE NWR     N/A     26  15  64 NW14      29.95S WCI  14
BUFFALO        NOT AVBL
WYNDMERE       NOT AVBL
 ***** THE ABOVE OBSERVATIONS ARE NON NWS ARE NOT QUALITY
       CONTROLLED AND MAY MIS-REPORT RAIN FOR SNOW...
$$

  *****  WEATHER ACROSS NORTHERN MINNESOTA  *****

CITY           SKY/WX    TMP DP  RH WIND       PRES   REMARKS
FLAG ISLAND    FLURRIES  19  16  86 W24G35    29.40R WCI   2
WARROAD        FLURRIES  19  12  73 W21G30    29.47R WCI   3
ROSEAU         FLURRIES  19  12  73 W17G25    29.50R WCI   4
HALLOCK        LGT SNOW  18  12  79 NW30G38   29.61R WCI  -2
THF RVR FALLS  FLURRIES  21  13  71 NW25G38   29.59R WCI   4
6HR MIN TEMP:  21; 6HR MAX TEMP:  38; 6HR PCP: TRACE;

HALSTAD        NOT AVBL
FOSSTON        FLURRIES  19  12  73 W25G32    29.58R WCI   2
BAUDETTE       FLURRIES  22  15  75 NW20G37   29.41R WCI   7
6HR MIN TEMP:  22; 6HR MAX TEMP:  39; 6HR PCP: TRACE;

WASKISH        FLURRIES  23  16  74 W24G31    29.46R WCI   7
CROOKSTON      CLOUDY    23  12  63 NW29G35   29.65R WCI   6
$$
  *****  WEATHER ACROSS CENTRAL AND WEST MINNESOTA  *****

CITY           SKY/WX    TMP DP  RH WIND       PRES   REMARKS
BEMIDJI        LGT SNOW  23  18  81 W21G31    29.50R WCI   8
6HR MIN TEMP:  23; 6HR MAX TEMP:  41;

PARK RAPIDS    CLOUDY    25  16  68 NW31G44   29.53R WCI   8
6HR MIN TEMP:  25; 6HR MAX TEMP:  44;

WADENA         FAIR      27  19  74 NW22G31   29.55R WCI  12
DETROIT LAKES  CLOUDY    25  16  68 NW22G39   29.63R WCI  10
MOORHEAD       CLOUDY    25  16  68 NW18      29.68R WCI  11
FERGUS FALLS   MOCLDY    27  18  69 NW28G37   29.67R WCI  11
ELBOW LAKE     FAIR      28  17  64 NW26G36   29.65R WCI  13
MORRIS MN      FAIR      32  16  51 NW24G32   29.64R WCI  19
STAPLES        FAIR      28  18  64 NW20G32   29.54R WCI  15
WHEATON        FAIR      28  12  50 NW21G29   29.70R WCI  15
$$
  *****  WEATHER ELSEWHERE ACROSS MINNESOTA  *****

CITY           SKY/WX    TMP DP  RH WIND       PRES   REMARKS
DULUTH         FAIR      35  24  64 W24G40    29.33R WCI  23
6HR MIN TEMP:  33; 6HR MAX TEMP:  38;

INTRNTL FALLS  LGT SNOW  24  15  68 W16G32    29.35R WCI  11
6HR MIN TEMP:  24; 6HR MAX TEMP:  40; 6HR PCP: TRACE;

ELY            CLOUDY    30  25  80 W25G37    29.27R WCI  16
CLOQUET        FAIR      36  23  60 W21G29    29.37R
BRAINERD       MOCLDY    34  21  59 W17G25    29.50R WCI  23
6HR MIN TEMP:  34; 6HR MAX TEMP:  44;

HIBBING        CLOUDY    30  22  72 NW25G38   29.36R WCI  16
6HR MIN TEMP:  30; 6HR MAX TEMP:  38; 6HR PCP: TRACE;

ALEXANDRIA     FAIR      29  20  69 NW23G30   29.59R WCI  15
6HR MIN TEMP:  29; 6HR MAX TEMP:  45;

SAINT CLOUD    FAIR      36  27  69 W18G25    29.54R
6HR MIN TEMP:  33; 6HR MAX TEMP:  45;

MINNEAPOLIS    FAIR      42  27  55 NW16      29.54R
6HR MIN TEMP:  42; 6HR MAX TEMP:  47;

$$

  *****  WEATHER ACROSS SOUTH DAKOTA  *****

CITY           SKY/WX    TMP DP  RH WIND       PRES   REMARKS
SIOUX FALLS    CLOUDY    40  24  53 N17G24    29.73R
6HR MIN TEMP:  37; 6HR MAX TEMP:  46;

BROOKINGS      CLOUDY    35  20  54 MISG        N/A
WATERTOWN      MOCLDY    32  18  56 NW16G24   29.71R WCI  21
6HR MIN TEMP:  31; 6HR MAX TEMP:  47;

HURON          CLOUDY    38  23  55 N13       29.77R
6HR MIN TEMP:  34; 6HR MAX TEMP:  44;

SISSETON         N/A     31  17  56 NW28G38   29.68R WCI  17
ABERDEEN       MOCLDY    34  17  50 NW15      29.77R WCI  24
6HR MIN TEMP:  33; 6HR MAX TEMP:  51;

MITCHELL       CLOUDY    41  24  51 N15       29.80R
PIERRE         CLOUDY    40  23  50 N17       29.81R
6HR MIN TEMP:  40; 6HR MAX TEMP:  50;

MOBRIDGE       CLOUDY    37  14  38 N24G38    29.79R
RAPID CITY     CLOUDY    37  26  64 N15       29.86R
6HR MIN TEMP:  36; 6HR MAX TEMP:  50;

$$

  *****  SOME WEATHER IN NEARBY STATES *****

CITY           SKY/WX    TMP DP  RH WIND       PRES   REMARKS
GLASGOW MT     CLOUDY    10  -1  61 NW22G31   30.11R WCI -10
6HR MIN TEMP:  10; 6HR MAX TEMP:  31;

GREAT FALLS MT CLOUDY    24  20  84 NE10      30.09R WCI  14
6HR MIN TEMP:  24; 6HR MAX TEMP:  30; 6HR PCP:  0.04;

CHEYENNE WY    FAIR      48  14  25 W33G45    29.87F
6HR MIN TEMP:  46; 6HR MAX TEMP:  52;

SCOTTSBLUFF NE FAIR      53  21  28 W15       29.80R
6HR MIN TEMP:  42; 6HR MAX TEMP:  57;

OMAHA NE       MOCLDY    39  28  64 CALM      29.70R
6HR MIN TEMP:  39; 6HR MAX TEMP:  51;

DES MOINES IA  FAIR      45  29  53 SW6       29.67S
6HR MIN TEMP:  45; 6HR MAX TEMP:  55;

DAVENPORT IA   FAIR      48  30  49 SW13G21   29.68S
6HR MIN TEMP:  48; 6HR MAX TEMP:  53;

CHICAGO IL     MOCLDY    44  30  57 SW20G33   29.67F
6HR MIN TEMP:  44; 6HR MAX TEMP:  50;

EAU CLAIRE WI  FAIR      39  27  62 W9        29.47R
6HR MIN TEMP:  38; 6HR MAX TEMP:  47;

LA CROSSE WI   FAIR      46  29  51 SW6       29.54R
6HR MIN TEMP:  44; 6HR MAX TEMP:  54;

$$

  *****  SOME NATIONAL WEATHER *****

CITY           SKY/WX    TMP DP  RH WIND       PRES   REMARKS
LA GUARDIA NY  FAIR      43  25  49 SW10      30.12F


USA.gov is the U.S. government's official web portal to all federal, state and local government web resources and services.